User: anonymous   Login
Location: Bonn
(50.7330°N, 7.1000°E)
Time: 14:02:48
(UTC+02:00)
Language:

Cosmos 1933 Rocket - Orbit

View from above orbital plane
View from above orbital plane
View from above satellite
View from above satellite

Ground track
Ground track

The orbit data is extracted from the following two-line orbital elements,

1 18959U 88020B   16120.03233083  .00000145  00000-0  14745-4 0  9997
2 18959  82.5352 297.7903 0018313  65.4623 294.8498 14.83270137519182
Epoch (UTC): 29 April 2016 00:46:33
Eccentricity: 0.0018313
inclination: 82.5352°
perigee height: 606 km
apogee height: 632 km
right ascension of ascending node: 297.7903°
argument of perigee: 65.4623°
revolutions per day: 14.83270137
mean anomaly at epoch: 294.8498°
orbit number at epoch: 51918

The dashed part of the orbit path shows where the satellite is in the earth's shadow,  

DLR